When you browse on this site, cookies collect data to enhance your experience and personalize the content and advertising you see.
Visit our Privacy Policy to learn more. By continuing to use the site, you agree to this use of cookies and data.
  • In Deutschland
  • Länderverzeichnis
  • Für 7 Tage
  • Wassertemperatur
  • Wetterkarte
  • Widgets
  • user-avatar
    Anmelden

    Stündliche Wetter Igls

    Heute, 25 August, Sonntag

    Zeit Temperatur Niederschläge Wind Luftdruck Luftfeuchtigkeit
    00:00 +16°C° 0 mm 1 m/S 688 mmHg 89%
    01:00 +16°C° 0 mm 1 m/S 688 mmHg 89%
    02:00 +16°C° 0 mm 1 m/S 688 mmHg 89%
    03:00 +15°C° 0 mm 1 m/S 688 mmHg 89%
    04:00 +15°C° 0 mm 1 m/S 688 mmHg 89%
    05:00 +16°C° 0 mm 1 m/S 688 mmHg 86%
    06:00 +18°C° 0 mm 1 m/S 688 mmHg 84%
    07:00 +17°C° 0 mm 0 m/S 688 mmHg 82%
    08:00 +21°C° 0.3 mm 1 m/S 689 mmHg 76%
    09:00 +23°C° 0.3 mm 1 m/S 689 mmHg 71%
    10:00 +25°C° 0.3 mm 1 m/S 689 mmHg 66%
    11:00 +25°C° 1.2 mm 1 m/S 689 mmHg 69%
    12:00 +25°C° 1.2 mm 1 m/S 689 mmHg 72%
    13:00 +24°C° 1.2 mm 1 m/S 688 mmHg 75%
    14:00 +24°C° 1.3 mm 1 m/S 688 mmHg 78%
    15:00 +24°C° 1.3 mm 1 m/S 688 mmHg 81%
    16:00 +23°C° 1.3 mm 1 m/S 688 mmHg 84%
    17:00 +20°C° 0.6 mm 0 m/S 688 mmHg 85%
    18:00 +19°C° 0.6 mm 0 m/S 688 mmHg 87%
    19:00 +17°C° 0.6 mm 0 m/S 688 mmHg 89%
    20:00 +17°C° 0.1 mm 0 m/S 688 mmHg 89%
    21:00 +16°C° 0.1 mm 0 m/S 688 mmHg 89%
    22:00 +15°C° 0.1 mm 0 m/S 688 mmHg 90%
    23:00 +15°C° 0 mm 0 m/S 688 mmHg 90%

    Morgen, 26 August, Montag

    Zeit Temperatur Niederschläge Wind Luftdruck Luftfeuchtigkeit
    00:00 +16°C° 0 mm 1 m/S 688 mmHg 90%
    01:00 +15°C° 0 mm 1 m/S 688 mmHg 90%
    02:00 +15°C° 0 mm 1 m/S 688 mmHg 90%
    03:00 +15°C° 0 mm 1 m/S 687 mmHg 90%
    04:00 +15°C° 0 mm 1 m/S 687 mmHg 90%
    05:00 +16°C° 0 mm 1 m/S 687 mmHg 88%
    06:00 +18°C° 0 mm 1 m/S 688 mmHg 86%
    07:00 +19°C° 0 mm 1 m/S 688 mmHg 84%
    08:00 +22°C° 0 mm 1 m/S 688 mmHg 75%
    09:00 +24°C° 0 mm 1 m/S 689 mmHg 67%
    10:00 +26°C° 0 mm 1 m/S 689 mmHg 58%
    11:00 +26°C° 0.7 mm 1 m/S 689 mmHg 58%
    12:00 +27°C° 0.7 mm 1 m/S 689 mmHg 58%
    13:00 +27°C° 0.7 mm 1 m/S 689 mmHg 58%
    14:00 +26°C° 1.6 mm 1 m/S 688 mmHg 64%
    15:00 +26°C° 1.6 mm 1 m/S 688 mmHg 70%
    16:00 +25°C° 1.6 mm 1 m/S 687 mmHg 76%
    17:00 +23°C° 1.5 mm 1 m/S 687 mmHg 80%
    18:00 +20°C° 1.5 mm 0 m/S 687 mmHg 84%
    19:00 +18°C° 1.5 mm 0 m/S 687 mmHg 87%
    20:00 +17°C° 0.2 mm 0 m/S 687 mmHg 88%
    21:00 +19°C° 0.2 mm 1 m/S 687 mmHg 88%
    22:00 +18°C° 0.2 mm 1 m/S 687 mmHg 89%
    23:00 +16°C° 0 mm 1 m/S 687 mmHg 89%

    übermorgen, 27 August, Dienstag

    Zeit Temperatur Niederschläge Wind Luftdruck Luftfeuchtigkeit
    00:00 +16°C° 0 mm 1 m/S 687 mmHg 89%
    01:00 +16°C° 0 mm 1 m/S 687 mmHg 89%
    02:00 +16°C° 0 mm 1 m/S 687 mmHg 89%
    03:00 +15°C° 0 mm 1 m/S 687 mmHg 88%
    04:00 +15°C° 0 mm 1 m/S 687 mmHg 88%
    05:00 +16°C° 0 mm 1 m/S 687 mmHg 86%
    06:00 +19°C° 0 mm 1 m/S 687 mmHg 85%
    07:00 +20°C° 0 mm 1 m/S 688 mmHg 83%
    08:00 +22°C° 0 mm 1 m/S 688 mmHg 73%
    09:00 +25°C° 0 mm 1 m/S 689 mmHg 63%
    10:00 +25°C° 0 mm 0 m/S 689 mmHg 53%
    11:00 +28°C° 0.1 mm 1 m/S 689 mmHg 50%
    12:00 +29°C° 0.1 mm 1 m/S 689 mmHg 46%
    13:00 +29°C° 0.1 mm 1 m/S 689 mmHg 43%
    14:00 +29°C° 0.3 mm 1 m/S 689 mmHg 46%
    15:00 +28°C° 0.3 mm 1 m/S 688 mmHg 49%
    16:00 +28°C° 0.3 mm 1 m/S 688 mmHg 52%
    17:00 +25°C° 0.1 mm 1 m/S 688 mmHg 62%
    18:00 +23°C° 0.1 mm 1 m/S 687 mmHg 73%
    19:00 +18°C° 0.1 mm 0 m/S 687 mmHg 84%
    20:00 +20°C° 0 mm 1 m/S 687 mmHg 85%
    21:00 +19°C° 0 mm 1 m/S 688 mmHg 86%
    22:00 +19°C° 0 mm 1 m/S 688 mmHg 87%
    23:00 +18°C° 0 mm 1 m/S 688 mmHg 87%

    28 August, Mittwoch

    Zeit Temperatur Niederschläge Wind Luftdruck Luftfeuchtigkeit
    00:00 +18°C° 0 mm 1 m/S 687 mmHg 87%
    01:00 +18°C° 0 mm 1 m/S 687 mmHg 87%
    02:00 +18°C° 0 mm 1 m/S 687 mmHg 87%
    03:00 +18°C° 0 mm 1 m/S 687 mmHg 87%
    04:00 +16°C° 0 mm 1 m/S 687 mmHg 87%
    05:00 +18°C° 0 mm 1 m/S 687 mmHg 85%
    06:00 +19°C° 0 mm 1 m/S 687 mmHg 83%
    07:00 +21°C° 0 mm 1 m/S 688 mmHg 81%
    08:00 +23°C° 0 mm 1 m/S 688 mmHg 73%
    09:00 +25°C° 0 mm 1 m/S 688 mmHg 65%
    10:00 +27°C° 0 mm 1 m/S 688 mmHg 57%
    11:00 +27°C° 0.3 mm 1 m/S 688 mmHg 57%
    12:00 +28°C° 0.3 mm 1 m/S 688 mmHg 56%
    13:00 +28°C° 0.3 mm 1 m/S 687 mmHg 55%
    14:00 +28°C° 0.8 mm 1 m/S 687 mmHg 59%
    15:00 +27°C° 0.8 mm 1 m/S 687 mmHg 63%
    16:00 +26°C° 0.8 mm 1 m/S 687 mmHg 67%
    17:00 +24°C° 0.7 mm 1 m/S 686 mmHg 74%
    18:00 +22°C° 0.7 mm 1 m/S 686 mmHg 81%
    19:00 +18°C° 0.7 mm 0 m/S 686 mmHg 88%
    20:00 +20°C° 0.2 mm 1 m/S 686 mmHg 88%
    21:00 +19°C° 0.2 mm 1 m/S 686 mmHg 88%
    22:00 +18°C° 0.2 mm 2 m/S 686 mmHg 88%
    23:00 +18°C° 0 mm 2 m/S 686 mmHg 88%

    29 August, Donnerstag

    Zeit Temperatur Niederschläge Wind Luftdruck Luftfeuchtigkeit
    00:00 +17°C° 0 mm 2 m/S 686 mmHg 88%
    01:00 +18°C° 0 mm 1 m/S 686 mmHg 88%
    02:00 +18°C° 0 mm 1 m/S 686 mmHg 88%
    03:00 +18°C° 0 mm 1 m/S 686 mmHg 88%
    04:00 +16°C° 0 mm 1 m/S 686 mmHg 88%
    05:00 +18°C° 0.2 mm 1 m/S 686 mmHg 87%
    06:00 +19°C° 0.2 mm 1 m/S 686 mmHg 86%
    07:00 +18°C° 0.2 mm 0 m/S 687 mmHg 85%
    08:00 +22°C° 0.4 mm 1 m/S 687 mmHg 80%
    09:00 +23°C° 0.4 mm 1 m/S 687 mmHg 74%
    10:00 +25°C° 0.4 mm 1 m/S 688 mmHg 69%
    11:00 +25°C° 1.2 mm 1 m/S 687 mmHg 72%
    12:00 +25°C° 1.2 mm 1 m/S 687 mmHg 74%
    13:00 +25°C° 1.2 mm 1 m/S 687 mmHg 76%
    14:00 +24°C° 1.3 mm 1 m/S 687 mmHg 77%
    15:00 +24°C° 1.3 mm 1 m/S 687 mmHg 79%
    16:00 +24°C° 1.3 mm 1 m/S 687 mmHg 80%
    17:00 +22°C° 0.7 mm 1 m/S 687 mmHg 83%
    18:00 +21°C° 0.7 mm 1 m/S 687 mmHg 87%
    19:00 +20°C° 0.7 mm 1 m/S 687 mmHg 90%
    20:00 +19°C° 0.1 mm 1 m/S 687 mmHg 91%
    21:00 +19°C° 0.1 mm 1 m/S 687 mmHg 91%
    22:00 +18°C° 0.1 mm 1 m/S 688 mmHg 91%
    23:00 +18°C° 0 mm 1 m/S 688 mmHg 91%

    30 August, Freitag

    Zeit Temperatur Niederschläge Wind Luftdruck Luftfeuchtigkeit
    00:00 +16°C° 0 mm 1 m/S 688 mmHg 92%
    01:00 +16°C° 0 mm 1 m/S 687 mmHg 92%
    02:00 +16°C° 0 mm 1 m/S 687 mmHg 93%
    03:00 +15°C° 0 mm 1 m/S 688 mmHg 94%
    04:00 +15°C° 0 mm 1 m/S 688 mmHg 94%
    05:00 +16°C° 0 mm 1 m/S 688 mmHg 93%
    06:00 +18°C° 0 mm 1 m/S 688 mmHg 92%
    07:00 +17°C° 0 mm 0 m/S 689 mmHg 91%
    08:00 +20°C° 0.1 mm 1 m/S 689 mmHg 85%
    09:00 +22°C° 0.1 mm 1 m/S 689 mmHg 79%
    10:00 +23°C° 0.1 mm 1 m/S 690 mmHg 73%
    11:00 +24°C° 0.5 mm 1 m/S 690 mmHg 70%
    12:00 +25°C° 0.5 mm 1 m/S 689 mmHg 67%
    13:00 +25°C° 0.5 mm 1 m/S 689 mmHg 65%
    14:00 +25°C° 1 mm 1 m/S 689 mmHg 71%
    15:00 +24°C° 1 mm 1 m/S 689 mmHg 77%
    16:00 +23°C° 1 mm 1 m/S 688 mmHg 83%
    17:00 +22°C° 1.1 mm 1 m/S 688 mmHg 87%
    18:00 +21°C° 1.1 mm 1 m/S 688 mmHg 90%
    19:00 +18°C° 1.1 mm 0 m/S 688 mmHg 94%
    20:00 +17°C° 0.4 mm 0 m/S 688 mmHg 94%
    21:00 +17°C° 0.4 mm 0 m/S 689 mmHg 94%
    22:00 +16°C° 0.4 mm 0 m/S 689 mmHg 94%
    23:00 +18°C° 0 mm 1 m/S 688 mmHg 93%
    Mehr zeigen